User: anonymous   Login
Location: North Smoke Tower Site
(30.5430°N, 82.3390°W)
Time: 07:22:43
(UTC-05:00)
Language:

Cosmos 1980 Rocket - Orbit

View from above orbital plane
View from above orbital plane
View from above satellite
View from above satellite

Ground track
Ground track

The orbit data is extracted from the following two-line orbital elements,

1 19650U 88102B   15026.21412266 -.00000003  00000-0  22899-4 0  4856
2 19650 070.9996 050.6321 0012141 066.3347 013.9720 14.15696667352449
Epoch (UTC): 26 January 2015 05:08:20
Eccentricity: 0.0012141
inclination: 70.9996°
perigee height: 831 km
apogee height: 849 km
right ascension of ascending node: 50.6321°
argument of perigee: 66.3347°
revolutions per day: 14.15696667
mean anomaly at epoch: 13.9720°
orbit number at epoch: 35244

The dashed part of the orbit path shows where the satellite is in the earth's shadow,  

DLR